{"data":{"norad_id":66399,"epoch":"2026-09-20T14:23:50.757792Z","epoch_age_seconds":84804,"freshness":"FRESH","line1":"1 66399U 25257V   26263.59989303  .00017431  00000+0  52580-3 0  9997","line2":"2 66399  53.1603  27.5348 0001055  85.2322 274.8801 15.34402526 49628","mean_motion":15.34402526,"eccentricity":0.0001055,"inclination_deg":53.1603,"raan_deg":27.5348,"arg_perigee_deg":85.2322,"mean_anomaly_deg":274.8801,"bstar":0.0005258,"rev_number":4962,"period_min":93.847603585084,"perigee_km":461.97402455981,"apogee_km":463.41744026634,"semimajor_km":6840.8327324131,"source":"CELESTRAK","updated_at":"2026-09-21T09:00:35.888969Z"}}